{"data":{"norad_id":57848,"epoch":"2026-09-19T22:11:48.594336Z","epoch_age_seconds":184269,"freshness":"STALE","line1":"1 57848U 23141J   26262.92486799 -.00004820  00000+0 -13182-3 0  9998","line2":"2 57848  53.1588 100.4457 0001389 125.8240 234.2891 15.34347416170081","mean_motion":15.34347416,"eccentricity":0.0001389,"inclination_deg":53.1588,"raan_deg":100.4457,"arg_perigee_deg":125.824,"mean_anomaly_deg":234.2891,"bstar":-0.00013182,"rev_number":17008,"period_min":93.850974361077,"perigee_km":461.90932098146,"apogee_km":463.809749819,"semimajor_km":6840.9965354002,"source":"CELESTRAK","updated_at":"2026-09-21T09:00:33.712546Z"}}